Location: Unspecified
(0.0000°N, 0.0000°E)
Time: 03:29:49
(UTC+00:00)

Vanguard 1 - Pass Details

Date: 17 December 2023
Orbit: 653 x 3826 km, 34.3° (Epoch: 22 February)

Event Time Altitude Azimuth Distance (km) Brightness Sun altitude
Rises 09:10:17 0° 208° (SSW) 3,319 12.9 43.5°
Reaches altitude 10° 09:13:59 10° 183° (S) 2,147 12.3 44.3°
Maximum altitude 09:16:35 15° 148° (SSE) 1,776 12.4 44.8°
Drops below altitude 10° 09:19:05 10° 113° (ESE) 2,053 12.7 45.3°
Sets 09:22:27 0° 88° (E) 3,073 13.1 46.0°
